Weather History for Wooster, OH

Change the Weather History Date:

Wednesday, November 6, 2013

  Actual Average Record
Temperature  
Mean Temperature 52 °F -  
Max Temperature 66 °F 51 °F 70 °F (2008)
Min Temperature 39 °F 33 °F 23 °F (2012)
Degree Days  
Heating Degree Days 12    
Growing Degree Days 2 (Base 50)    
Moisture  
Dew Point 46 °F    
Average Humidity 74    
Maximum Humidity 94    
Minimum Humidity 50    
Precipitation  
Precipitation 0.08 in - - ()
Sea Level Pressure  
Sea Level Pressure 30.04 in    
Wind  
Wind Speed 10 mph (SSW)    
Max Wind Speed 21 mph    
Max Gust Speed 31 mph    
Visibility 8 miles    
Events Rain    
Averages and records for this station are not official NWS values.
T = Trace of Precipitation, MM = Missing Value Source: NWS Daily Summary

Daily Weather History Graph

Daily Weather History Graph

Search for Another Location

Airport:

Trip Planner

Search our weather history database for the weather conditions in past years. The results will help you decide how hot, cold, wet, or windy it might be!

Date:

Astronomy

Nov. 06, 2013 Rise Set
Actual Time 7:04 AM EST 5:17 PM EST
Civil Twilight 6:35 AM EST 5:46 PM EST
Nautical Twilight 6:02 AM EST 6:19 PM EST
Astronomical Twilight 5:30 AM EST 6:51 PM EST
Moon 10:18 AM EST (11/6) 8:19 PM EST (11/6)
Length of Visible Light 11h 10m
Length of Day
10h 13m
Waxing Crescent, 13% of the Moon is Illuminated
Nov 6
Waxing Crescent
Nov 10
First Quarter
Nov 17
Full
Nov 25
Last Quarter
Dec 2
New

Hourly Weather History & Observations

Time (EST) Temp. Windchill Dew Point Humidity Pressure Visibility Wind Dir Wind Speed Gust Speed Precip Events Conditions
12:56 AM 39.9 °F 35.8 °F 34.0 °F 79% 30.27 in 10.0 mi SE 5.8 mph - N/A   Clear
1:56 AM 44.1 °F 41.5 °F 33.1 °F 65% 30.24 in 10.0 mi SSE 4.6 mph - N/A   Clear
2:56 AM 45.0 °F 40.6 °F 34.0 °F 65% 30.23 in 10.0 mi South 8.1 mph - N/A   Clear
3:56 AM 46.0 °F 43.1 °F 34.0 °F 63% 30.21 in 10.0 mi SSW 5.8 mph - N/A   Clear
4:56 AM 46.9 °F - 33.1 °F 59% 30.20 in 10.0 mi South 9.2 mph - N/A   Clear
5:56 AM 46.9 °F - 33.1 °F 59% 30.18 in 10.0 mi South 10.4 mph - N/A   Clear
6:56 AM 48.9 °F - 34.0 °F 56% 30.17 in 10.0 mi SSW 9.2 mph - N/A   Clear
7:56 AM 50.0 °F - 34.0 °F 54% 30.15 in 10.0 mi SSW 10.4 mph 16.1 mph N/A   Clear
8:56 AM 52.0 °F - 35.1 °F 53% 30.14 in 10.0 mi South 11.5 mph - N/A   Clear
9:56 AM 54.0 °F - 37.0 °F 53% 30.12 in 10.0 mi SSW 10.4 mph - N/A   Partly Cloudy
10:56 AM 57.0 °F - 39.0 °F 51% 30.12 in 10.0 mi SSW 13.8 mph 20.7 mph N/A   Overcast
11:56 AM 61.0 °F - 42.1 °F 50% 30.07 in 10.0 mi SSW 13.8 mph 19.6 mph N/A   Mostly Cloudy
12:56 PM 64.9 °F - 46.0 °F 50% 30.03 in 10.0 mi SSW 19.6 mph 28.8 mph N/A   Scattered Clouds
1:56 PM 66.0 °F - 48.0 °F 52% 29.99 in 10.0 mi SSW 16.1 mph 27.6 mph N/A   Mostly Cloudy
2:56 PM 64.9 °F - 48.9 °F 56% 29.98 in 10.0 mi SW 16.1 mph 31.1 mph N/A   Mostly Cloudy
3:56 PM 64.9 °F - 48.9 °F 56% 29.96 in 10.0 mi SSW 18.4 mph 26.5 mph N/A   Overcast
4:56 PM 61.0 °F - 52.0 °F 72% 29.96 in 5.0 mi SSW 20.7 mph 28.8 mph 0.01 in   Haze
5:56 PM 57.9 °F - 55.0 °F 90% 29.97 in 5.0 mi SW 13.8 mph 20.7 mph 0.02 in   Overcast
6:12 PM 57.2 °F - 55.4 °F 94% 29.97 in 3.0 mi SSW 13.8 mph 19.6 mph N/A   Overcast
6:18 PM 57.2 °F - 55.4 °F 94% 29.97 in 2.5 mi SW 12.7 mph - 0.00 in Rain Light Rain
6:28 PM 57.2 °F - 55.4 °F 94% 29.96 in 3.0 mi SW 12.7 mph - 0.00 in Rain Light Rain
6:33 PM 57.2 °F - 55.4 °F 94% 29.96 in 4.0 mi SW 12.7 mph - 0.00 in Rain Light Rain
6:56 PM 57.9 °F - 55.9 °F 93% 29.96 in 6.0 mi SSW 12.7 mph 19.6 mph 0.01 in   Overcast
7:56 PM 57.9 °F - 55.9 °F 93% 29.96 in 10.0 mi SW 10.4 mph - 0.01 in   Overcast
8:56 PM 57.9 °F - 55.9 °F 93% 29.94 in 10.0 mi SW 6.9 mph - 0.01 in Rain Light Rain
9:26 PM 57.2 °F - 55.4 °F 94% 29.93 in 7.0 mi West 6.9 mph - 0.01 in Rain Light Rain
9:35 PM 57.2 °F - 55.4 °F 94% 29.93 in 10.0 mi WSW 8.1 mph - 0.01 in Rain Light Rain
9:43 PM 57.2 °F - 55.4 °F 94% 29.93 in 9.0 mi WSW 9.2 mph - 0.01 in Rain Light Rain
9:56 PM 57.9 °F - 55.9 °F 93% 29.94 in 9.0 mi WSW 10.4 mph - 0.01 in Rain Light Rain
10:56 PM 57.0 °F - 53.1 °F 87% 29.93 in 10.0 mi West 13.8 mph - 0.01 in Rain Light Rain
11:56 PM 50.0 °F - 46.9 °F 89% 29.95 in 8.0 mi NW 20.7 mph 29.9 mph N/A Rain Light Rain